Погода в Укане

Россия / Удмуртская Республика     58°09′49″N   52°02′56″E
темп.,
°C
ветер,
м/с
пор.,
м/с
влажн.,
%
обл.,
%
осадки,
мм/ч
давл.,
гПа
погр.,
м
5 августа, чт
чт501:00+17зсз5129494 0.0 1010581
04:00+15сз411967 0.1 1011413
07:00+16сз599340 0.0 1011358
10:00+20ссз577517 0.0 1012830
13:00+21ссз566843 1.2 10131085
16:00+21с356168 2.4 10131034
19:00+20сз376174 0.0 1014234
22:00+16с386534 0.0 1015204
6 августа, пт
пт601:00+12с337751 0.0 101648
04:00+10с33796 0.0 101750
07:00+13с36704 0.0 1017213
10:00+18с45521 0.0 1018980
13:00+20ссз44430 0.0 10171718
16:00+21с45405 0.0 10171719
19:00+18с24600 0.0 101791
22:00+13с2272100 0.0 101815
7 августа, сб
сб701:00+11с2276100 0.0 101814
04:00+11св1180100 0.0 101914
07:00+13св2272100 0.0 1019140
10:00+17ссв2356100 0.0 1019722
13:00+19сз3450100 0.0 10191341
16:00+19ссз3450100 0.0 10191353
19:00+17сз2363100 0.0 101950
22:00+13с227625 0.0 102013
8 августа, вс
вс801:00+11св11837 0.0 102011
04:00+9ссв228411 0.0 102211
07:00+13ссв12715 0.0 1022120
10:00+18с2350100 0.0 1021758
13:00+19сз224930 0.0 1021843
16:00+21ссз33415 0.0 10211142
19:00+19с2258100 0.0 102125
22:00+15ссв226557 0.0 102212
9 августа, пн
пн901:00+13св227290 0.0 102218
04:00+11в2272100 0.0 102211
07:00+14вюв2366100 0.0 1022122
10:00+18юв2256100 0.0 1021397
13:00+18ю2359100 0.0 1021283
16:00+21ююв235098 0.0 1020622
19:00+18вюв3565100 0.0 101999
22:00+16юв3572100 0.0 1018105